COSMOS 1275 DEB, 12670

Orbit data source: Space-Track

COSMOS 1275 DEB, 12670 is space debris in LEO originally from a launch on Thu, 04 Jun 1981 UTC launched from the Plesetsk Missile And Space Complex (PKMTR). Debris objects in space refer to the collection of defunct objects orbiting the Earth. Examples of debris include non-operational satellites, rocket bodies, and fragments generated from explosions, collisions, or faulty payload assembly.

Loading next visibility...
Identifier
12670, 1981-053AA
Orbit
LEO
Country
Flag of CISCIS
Related business
Manufacturer
Unknown
Mission
Spacecraft
Bus & Motor
Unknown
Mass
Unknown
Launch date (UTC)
1981-06-04 (45 years ago)
Launch vehicle
Unknown
Launch site
Plesetsk Missile And Space Complex (PKMTR)
Object type
Payload
Rocket body
Debris
Shape & HBR
Unknown shape, 0.4 m
Radar Cross Section
Medium (>0.1 m² and <1 m²)

Expand to show TLE details & history
Last TLE update: 6 hours ago

TLE from 6 hours ago
0 COSMOS 1275 DEB
1 12670U 81053AA  26038.17575504  .00000574  00000-0  52163-3 0  9992
2 12670  82.9420 301.8610 0057322  71.6121  80.0367 13.81031776235820
Epoch: 2026-02-07T04:13Z
TLE epoch observation values (Epoch: 2026-02-07T04:13:05.235Z)
Latitude
27.51521°
Longitude
-82.39238°
Altitude
956.556 km
Speed
7.379 km/s
True Right ascension
07h 52m 43s
True Declination
27° 22' 42"
Sunlit
Object was in full shadow at epoch
Visualization orbit readout
Latitude
Unknown
Longitude
Unknown
Altitude
Unknown
Speed
Unknown
Apparent Right ascension
Unknown
Apparent Declination
Unknown
Sunlit
N/A
Visualization observer readout
Local Sidereal Time
12:39:04
Azimuth
Unknown
Elevation
Unknown
Doppler factor
Unknown
Orbital elements
Apogee altitude
999.418 km
Perigee altitude
915.321 km
Semi-major axis
7,335.507 km
Eccentricity
0.00573
Inclination
82.942°
RAAN
301.861°
Arg. of periapsis
71.6121°
True anomaly
80.68444°
Mean anomaly
80.0367°
Eccentric anomaly
80.36049°
Mean motion
3.4546 °/min
Orbital period
104.21 mins
BSTAR
0.00052163
Loading maneuver chart data...
Computing Atmospheric mass density...
Loading historical data...
Loading historical data...
Loading historical data...
Loading historical data...
Loading historical data...
Loading historical data...
Loading historical data...

Documentation

Showing up to 5 results
|